Location: Newark
(48.9886°N, 1.2358°E)
Time: 23:17:47
(UTC+00:00)

Transit 4A - Pass Details

Date: 28 November 2019
Orbit: 870 x 975 km, 66.8° (Epoch: 11 December)

Event Time Altitude Azimuth Distance (km) Brightness Sun altitude
Rises 20:03:19 0° 215° (SW) 3,621 11.2 -38.8°
Reaches altitude 10° 20:05:53 10° 216° (SW) 2,666 10.5 -39.2°
Enters shadow 20:06:17 12° 216° (SW) 2,518 10.3 -39.2°
